TimeCDT,TemperatureF,Dew PointF,Humidity,Sea Level PressureIn,VisibilityMPH,Wind Direction,Wind SpeedMPH,Gust SpeedMPH,PrecipitationIn,Events,Conditions,WindDirDegrees,DateUTC
12:53 AM,57.9,52.0,81,29.83,10.0,West,8.1,-,N/A,,Clear,270,2013-09-20 05:53:00
1:53 AM,57.9,52.0,81,29.82,10.0,WNW,15.0,18.4,N/A,,Scattered Clouds,290,2013-09-20 06:53:00
2:53 AM,57.0,52.0,83,29.83,10.0,West,13.8,-,0.00,,Scattered Clouds,280,2013-09-20 07:53:00
3:53 AM,55.0,52.0,89,29.83,10.0,West,10.4,-,N/A,,Mostly Cloudy,270,2013-09-20 08:53:00
4:07 AM,55.4,51.8,88,29.81,10.0,West,10.4,-,N/A,,Mostly Cloudy,270,2013-09-20 09:07:00
4:53 AM,55.9,52.0,87,29.83,10.0,West,10.4,-,N/A,,Overcast,270,2013-09-20 09:53:00
5:53 AM,55.9,52.0,87,29.82,10.0,West,8.1,-,N/A,,Mostly Cloudy,260,2013-09-20 10:53:00
6:53 AM,54.0,52.0,93,29.84,10.0,West,8.1,-,N/A,,Mostly Cloudy,260,2013-09-20 11:53:00
7:53 AM,55.9,53.1,90,29.85,10.0,West,10.4,-,N/A,,Overcast,280,2013-09-20 12:53:00
8:53 AM,55.9,52.0,87,29.86,10.0,NNW,12.7,19.6,N/A,,Overcast,330,2013-09-20 13:53:00
9:53 AM,57.9,50.0,75,29.89,10.0,NW,15.0,25.3,N/A,,Overcast,320,2013-09-20 14:53:00
10:53 AM,57.0,48.0,72,29.91,10.0,NW,17.3,23.0,N/A,,Overcast,320,2013-09-20 15:53:00
11:53 AM,59.0,48.0,67,29.91,10.0,NW,16.1,23.0,N/A,,Overcast,310,2013-09-20 16:53:00
12:13 PM,59.0,48.2,67,29.88,10.0,NW,11.5,-,N/A,,Overcast,310,2013-09-20 17:13:00
12:53 PM,62.1,46.0,56,29.91,10.0,NW,13.8,25.3,N/A,,Mostly Cloudy,310,2013-09-20 17:53:00
1:53 PM,63.0,45.0,52,29.90,10.0,WNW,15.0,-,N/A,,Mostly Cloudy,290,2013-09-20 18:53:00
2:53 PM,63.0,44.1,50,29.89,10.0,NW,13.8,-,N/A,,Mostly Cloudy,320,2013-09-20 19:53:00
3:53 PM,55.9,48.9,77,29.91,10.0,WNW,12.7,-,0.00,Rain,Light Rain,300,2013-09-20 20:53:00
4:53 PM,57.0,50.0,77,29.92,10.0,WNW,12.7,-,0.00,Rain,Light Rain,290,2013-09-20 21:53:00
5:53 PM,54.0,50.0,86,29.93,10.0,WNW,10.4,-,0.03,Rain,Light Rain,290,2013-09-20 22:53:00
6:53 PM,53.1,50.0,89,29.94,10.0,West,5.8,-,0.00,,Partly Cloudy,280,2013-09-20 23:53:00
7:53 PM,53.1,48.9,86,29.94,10.0,West,11.5,-,0.00,Rain,Light Rain,280,2013-09-21 00:53:00
8:53 PM,51.1,46.9,86,29.96,10.0,WNW,6.9,-,0.00,,Mostly Cloudy,300,2013-09-21 01:53:00
9:53 PM,50.0,46.9,89,29.97,10.0,WNW,6.9,-,N/A,,Scattered Clouds,300,2013-09-21 02:53:00
10:53 PM,48.9,46.0,90,29.97,10.0,WNW,8.1,-,N/A,,Clear,300,2013-09-21 03:53:00
11:53 PM,50.0,46.0,86,29.97,10.0,WNW,6.9,-,N/A,,Overcast,290,2013-09-21 04:53:00